OISA  Abadeh Airport

Add Bookmark

Abadeh, Iran

Status
Operational
Latitude Longitude
31° 10' 0" N 52° 40' 0" E
31.166668 52.666668
Local (DST + 5) UTC (GMT + 4)
Oct 20, 2014 07:53 Oct 20, 2014 04:23
Sunrise-Sunset Local UTC
Begin Civil Twilight 05:40 02:10
Sunrise 06:04 02:34
Sunset 05:23 13:53
End Civil Twilight 05:48 14:18

Current Weather

METAR Observed VFR
OISA 191954Z 00000KT CAVOK 11/M03 Q1021 Sun, Oct 19, 2014 @ 19:54 UTC
(8 Hours, 29 Minutes ago)
Visual Flight Rules
Wind Visibility Clouds Conditions
Calm 10 km or more
  • Clear skies
  • No significant weather
Temperatures Readings Precipitation
Current Temp 11°C (52°F)
Dewpoint -3°C (27°F)
Humidity 38%
Altimeter 30.15"Hg
Sea Level Pressure 1021mb
Field Elevation 6574.8'
None Recorded

Additional weather within a 185.2km radius of OISA

Map ICAO Location
OISY 118.7km W (244°)
OIYY 173.2km E (061°)
OISS 180.9km S (182°)

24 Hour Weather History

Loading
-

24 Hour Weather Graphs

Loading
-

CheckWX.com is intended as a tool to help pilots better visualize weather data. It is not intended as a substitute for an official weather briefing obtained from a Flight Service Station. CheckWX.com does not meet the FAA requirements for an official pre-flight weather briefing. Therefore, it's important that pilots still call and obtain an official FSS pre-flight weather briefing.